SCOUT A R/B, 2413

Orbit data source: Space-Track

SCOUT A R/B, 2413 is space debris in LEO originally from a launch on Thu, 18 Aug 1966 UTC launched from the Air Force Western Test Range (AFWTR). Debris objects in space refer to the collection of defunct objects orbiting the Earth. Examples of debris include non-operational satellites, rocket bodies, and fragments generated from explosions, collisions, or faulty payload assembly.

Loading next visibility...
Identifier
2413, 1966-076B
Orbit
LEO
Country
Flag of USUS
Related business
Manufacturer
ABL
Mission
Spacecraft
Bus & Motor
ALTAIR, Unknown motor
Mass
33 kg wet, 33 kg dry
Launch date (UTC)
1966-08-18 (60 years ago)
Launch vehicle
Unknown
Launch site
Air Force Western Test Range (AFWTR)
Object type
Payload
Rocket body
Debris
Shape & HBR
CYL, 0.8 m
Radar Cross Section
Medium (>0.1 m² and <1 m²)

Expand to show TLE details & history
Last TLE update: 7 hours ago

TLE from 7 hours ago
0 SCOUT A R/B
1 02413U 66076B   26237.23085485  .00000067  00000-0  84195-4 0  9994
2 02413  88.8414  63.6783 0030797 223.7542 136.1169 13.51879116957986
Epoch: 2026-08-25T05:32Z
TLE epoch observation values (Epoch: 2026-08-25T05:32:25.859Z)
Latitude
0.00002°
Longitude
7.06937°
Altitude
1,084.866 km
Speed
7.302 km/s
True Right ascension
04h 14m 42s
True Declination
0° 00' 00"
Sunlit
Object was in daylight at epoch
Visualization orbit readout
Latitude
Unknown
Longitude
Unknown
Altitude
Unknown
Speed
Unknown
Apparent Right ascension
Unknown
Apparent Declination
Unknown
Sunlit
N/A
Visualization observer readout
Local Sidereal Time
03:28:29
Azimuth
Unknown
Elevation
Unknown
Doppler factor
Unknown
Orbital elements
Apogee altitude
1,085.318 km
Perigee altitude
1,039.489 km
Semi-major axis
7,440.541 km
Eccentricity
0.00308
Inclination
88.8414°
RAAN
63.6783°
Arg. of periapsis
223.7542°
True anomaly
136.36085°
Mean anomaly
136.1169°
Eccentric anomaly
136.23894°
Mean motion
3.38171 °/min
Orbital period
106.45 mins
BSTAR
0.000084195
Loading maneuver chart data...
Computing Atmospheric mass density...
Loading historical data...
Loading historical data...
Loading historical data...
Loading historical data...
Loading historical data...
Loading historical data...
Loading historical data...

Documentation

Showing up to 5 results
|